Location: Unspecified
(0.0000°N, 0.0000°E)
Time: 05:46:50
(UTC+00:00)

Dynamics Explorer 1 - Visible Passes

Search period start: 16 August 2018 00:00
Search period end: 26 August 2018 00:00
Orbit: 566 x 23152 km, 90.2° (Epoch: 14 August)

Date Brightness Start Highest point End Pass type
(mag) Time Alt. Az. Time Alt. Az. Time Alt. Az.
16 Aug 10.7 01:47:51 10° SSE 02:23:13 24° ESE 02:34:54 10° ENE visible
16 Aug 10.5 16:43:49 10° N 16:59:40 78° W 18:41:45 10° SSW visible
17 Aug 9.7 04:30:35 10° S 05:39:01 51° WSW 05:51:35 10° NW visible
18 Aug 10.8 01:33:30 10° SE 02:02:11 20° ESE 02:13:18 10° ENE visible
18 Aug 10.4 16:23:34 10° N 16:39:49 84° W 18:26:04 10° SSW visible
19 Aug 9.7 04:12:15 10° S 05:19:53 57° WSW 05:31:44 10° NNW visible
20 Aug 10.9 01:19:50 10° SE 01:41:07 16° ESE 01:51:06 10° ENE visible
20 Aug 10.4 16:03:23 10° N 16:20:08 90° ESE 18:10:13 10° SSW visible
21 Aug 9.5 03:54:03 10° S 05:00:34 63° WSW 05:11:47 10° NNW visible
21 Aug 12.5 19:33:09 10° W 19:42:27 12° WSW 19:56:14 10° WSW visible
22 Aug 10.9 01:07:38 10° SE 01:20:00 13° ESE 01:27:34 10° E visible
22 Aug 10.4 15:43:16 10° N 16:00:38 84° ESE 17:54:13 10° SSW visible
23 Aug 9.4 03:35:59 10° S 04:41:05 70° WSW 04:51:45 10° NNW visible
23 Aug 12.3 19:07:46 10° WNW 19:21:31 15° WSW 19:48:39 10° SW visible
25 Aug 9.2 03:18:02 10° S 04:21:25 77° W 04:31:40 10° NNW visible
25 Aug 12.1 18:44:45 10° WNW 19:00:37 19° W 19:38:36 10° SW visible
